Regional Weather Roundup
Issued by NWS

Home | Current Version | Previous Version | Graphics & Text | Print | Product List | Glossary On
Versions: 1 2 3 4 5 6 7 8 9 10 11 12 13 14 15 16 17 18 19 20 21 22 23 24 25 26 27
000
ASUS45 KCYS 182210
RWRWY

WYOMING REGIONAL WEATHER ROUNDUP
NATIONAL WEATHER SERVICE CHEYENNE WY
400 PM MDT FRI APR 18 2014

NOTE:  "FAIR" INDICATES FEW OR NO CLOUDS BELOW 12,000 FEET
WITH NO SIGNIFICANT WEATHER AND/OR OBSTRUCTIONS TO VISIBILITY.

WYZ001-182300-
YELLOWSTONE NATIONAL PARK

CITY           SKY/WX    TMP DP  RH WIND       PRES   REMARKS
LK YELLOWSTONE   N/A     39  27  62 W14G22    29.93S WCI  31
W YELLOWSTONE  NOT AVBL

$$
WYZ002>013-054>058-071-098>099-182300-
NORTHERN WYOMING

CITY           SKY/WX    TMP DP  RH WIND       PRES   REMARKS
JACKSON        SUNNY     46  32  57 S23G31    29.94S
CODY           PTSUNNY   57  34  41 W18G29    29.74S
GREYBULL       CLOUDY    62  40  44 NW12      29.68F
WORLAND        CLOUDY    65  31  28 SW24G33   29.70F
SHERIDAN         N/A     63  25  23 SW28G39     N/A
BUFFALO        PTSUNNY   62  36  37 SW22      29.73R
GILLETTE       CLOUDY    70  37  30 NW23G33   29.66S
HULETT         FAIR      70  36  28 SW15G21   29.64
NEWCASTLE      FAIR      66  34  30 MISG      29.70

$$
WYZ014>020-022>026-101>103-182300-
CENTRAL WYOMING

CITY           SKY/WX    TMP DP  RH WIND       PRES   REMARKS
BIG PINEY      CLOUDY    52  32  46 W30G39    29.99F
PINEDALE       CLOUDY    46  34  61 N8        29.98S
DUBOIS         FAIR      46  30  53 W24G32    29.88S
LANDER         PTSUNNY   58  37  45 SW28G38   29.83R
RIVERTON       PTSUNNY   64  30  27 W28G37    29.82R
CASPER         CLOUDY    71  24  17 SW32G49   29.73F
DOUGLAS        CLOUDY    69  31  24 SW17      29.76F

$$
WYZ021-027>030-104>119-182300-
SOUTHERN WYOMING

CITY           SKY/WX    TMP DP  RH WIND       PRES   REMARKS
EVANSTON       PTSUNNY   57  29  34 W26G36    30.01S
KEMMERER       MOCLDY    50  34  53 W31G37    30.01S
FORT BRIDGER   FAIR      61  28  28 W22G32    30.01S
ROCK SPRINGS   PTSUNNY   62  26  25 W22G33    29.94R
DIXON          FAIR      67  24  19 SW22G30   29.95S
RAWLINS        CLOUDY    67  17  14 SW39G49   29.89F
SARATOGA       FAIR      68  21  17 SW28G41   29.95R
LARAMIE        PTSUNNY   68  21  16 SW29G39   29.92F
CHEYENNE       PTSUNNY   69  27  20 SW15G25   29.90F
TORRINGTON     CLOUDY    80  27  14 SW24G38   29.75F
PINE BLUFFS    FAIR      77  27  15 S16G24    29.87F

$$



USA.gov is the U.S. government's official web portal to all federal, state and local government web resources and services.